Content
SEND FEEDBACK

Daily
Averages
Monthly
Summary
United States of America

LA HABRA HEIGHTS, CALIFORNIA


Home > North America > United States > California
Elevation: 800 feet     Latitude: 33 57N     Longitude: 117 54W

WEATHER
 
SELECT A DAY
Number of Records: 177,228;   Date Range: 1/1/95 - 10/24/14
 
SHARE

PRINT THIS DATA

[ ← Previous Day ]
WEATHER ALMANAC - JANUARY 31, 2013
[ Next Day → ]
[ °C ]   °F
Weather ElementAverageHighLow
Temperature61.3 °F81 °F (2:53 pm)46 °F (5:53 am)
Dewpoint39.7 °F42.1 °F (8:53 am)35.1 °F (2:53 pm)
Humidity49.2 %74 % (6:53 am)19 % (2:53 pm)
Barometer30.15 in30.22 in (1:53 am)30.07 in (3:53 pm)
Wind Speed1.6 mph8.1 mph (3:53 pm)
Weather ElementAverage
Visibility10 mi
Wind DirectionENE (66.4 °)

Weather ElementTotal
Precipitation---
Heating Degree Days1.5 (Base 65)
Growing Degree Days13.5 (Base 50)
Averaged from 22 records on January 31, 2013
WEATHER CONDITIONS BREAKOUT
WIND DIRECTION BREAKOUT
WEATHER BY HOUR - JANUARY 31, 2013
[ °C ]   °F
Local TimeTemperatureDewpointHumidityBarometerVisibilityWind DirectionWind SpeedGust SpeedPrecipitationEventsConditions
1:53 AM48.9 °F39.0 °F69 %30.22 in10.0 miCalmClear
2:53 AM48.0 °F39.0 °F71 %30.19 in10.0 miCalmClear
3:53 AM46.9 °F37.9 °F71 %30.18 in10.0 miCalmClear
4:53 AM46.9 °F37.9 °F71 %30.17 in10.0 miCalmClear
5:53 AM46.0 °F37.9 °F73 %30.17 in10.0 miCalmClear
6:53 AM46.9 °F39.0 °F74 %30.18 in10.0 miCalmClear
7:53 AM52.0 °F41.0 °F66 %30.19 in10.0 miCalmClear
8:53 AM59.0 °F42.1 °F53 %30.20 in10.0 miCalmClear
9:53 AM66.0 °F41.0 °F40 %30.21 in10.0 miCalmClear
10:53 AM72.0 °F41.0 °F33 %30.19 in10.0 miWNW (300°)4.6 mphClear
11:53 AM75.0 °F42.1 °F31 %30.17 in10.0 miNW (320°)5.8 mphClear
12:53 PM78.1 °F39.9 °F25 %30.12 in10.0 miVariable4.6 mphClear
1:53 PM80.1 °F37.0 °F21 %30.09 in10.0 miVariable4.6 mphClear
2:53 PM81.0 °F35.1 °F19 %30.08 in10.0 miWSW (250°)4.6 mphClear
3:53 PM78.1 °F39.0 °F25 %30.07 in10.0 miWNW (290°)8.1 mphClear
5:53 PM69.1 °F39.0 °F33 %30.09 in10.0 miWNW (300°)3.5 mphClear
6:53 PM64.9 °F39.9 °F40 %30.11 in10.0 miCalmClear
7:53 PM62.1 °F41.0 °F46 %30.11 in10.0 miCalmClear
8:53 PM60.1 °F41.0 °F49 %30.12 in10.0 miCalmClear
9:53 PM57.9 °F41.0 °F53 %30.11 in10.0 miCalmClear
10:53 PM55.9 °F41.0 °F57 %30.11 in10.0 miCalmClear
11:53 PM54.0 °F41.0 °F62 %30.12 in10.0 miCalmClear
Hourly data recorded from KFUL, located miles away from La Habra Heights, California







STORIES FROM OUR PARTNERS